Year,Month,Day,Hour,Minute,Value (Times are PST for temperature in C)
2015,08,21,00,00,17.90
2015,08,21,00,01,17.80
2015,08,21,00,02,17.80
2015,08,21,00,03,17.80
2015,08,21,00,04,17.80
2015,08,21,00,05,17.80
2015,08,21,00,06,17.80
2015,08,21,00,07,17.80
2015,08,21,00,08,17.80
2015,08,21,00,09,17.80
2015,08,21,00,10,17.70
2015,08,21,00,11,17.70
2015,08,21,00,12,17.70
2015,08,21,00,13,17.70
2015,08,21,00,14,17.70
2015,08,21,00,15,17.70
2015,08,21,00,16,17.70
2015,08,21,00,17,17.70
2015,08,21,00,18,17.60
2015,08,21,00,19,17.60
2015,08,21,00,20,17.60
2015,08,21,00,21,17.60
2015,08,21,00,22,17.60
2015,08,21,00,23,17.60
2015,08,21,00,24,17.60
2015,08,21,00,25,17.60
2015,08,21,00,26,17.60
2015,08,21,00,27,17.60
2015,08,21,00,28,17.60
2015,08,21,00,29,17.60
2015,08,21,00,30,17.60
2015,08,21,00,31,17.60
2015,08,21,00,32,17.50
2015,08,21,00,33,17.50
2015,08,21,00,34,17.50
2015,08,21,00,35,17.50
2015,08,21,00,36,17.50
2015,08,21,00,37,17.40
2015,08,21,00,38,17.40
2015,08,21,00,39,17.40
2015,08,21,00,40,17.40
2015,08,21,00,41,17.40
2015,08,21,00,42,17.40
2015,08,21,00,43,17.40
2015,08,21,00,44,17.40
2015,08,21,00,45,17.40
2015,08,21,00,46,17.40
2015,08,21,00,47,17.40
2015,08,21,00,48,17.40
2015,08,21,00,49,17.30
2015,08,21,00,50,17.30
2015,08,21,00,51,17.30
2015,08,21,00,52,17.30
2015,08,21,00,53,17.30
2015,08,21,00,54,17.30
2015,08,21,00,55,17.30
2015,08,21,00,56,17.30
2015,08,21,00,57,17.30
2015,08,21,00,58,17.30
2015,08,21,00,59,17.30
2015,08,21,01,00,17.30
2015,08,21,01,01,17.30
2015,08,21,01,02,17.30
2015,08,21,01,03,17.30
2015,08,21,01,04,17.30
2015,08,21,01,05,17.30
2015,08,21,01,06,17.30
2015,08,21,01,07,17.30
2015,08,21,01,08,17.30
2015,08,21,01,09,17.20
2015,08,21,01,10,17.20
2015,08,21,01,11,17.20
2015,08,21,01,12,17.20
2015,08,21,01,13,17.20
2015,08,21,01,14,17.20
2015,08,21,01,15,17.20
2015,08,21,01,16,17.20
2015,08,21,01,17,17.20
2015,08,21,01,18,17.20
2015,08,21,01,19,17.20
2015,08,21,01,20,17.20
2015,08,21,01,21,17.20
2015,08,21,01,22,17.10
2015,08,21,01,23,17.10
2015,08,21,01,24,17.10
2015,08,21,01,25,17.10
2015,08,21,01,26,17.10
2015,08,21,01,27,17.10
2015,08,21,01,28,17.10
2015,08,21,01,29,17.10
2015,08,21,01,30,17.10
2015,08,21,01,31,17.00
2015,08,21,01,32,17.00
2015,08,21,01,33,17.00
2015,08,21,01,34,17.00
2015,08,21,01,35,17.00
2015,08,21,01,36,17.00
2015,08,21,01,37,17.00
2015,08,21,01,38,16.90
2015,08,21,01,39,16.90
2015,08,21,01,40,16.90
2015,08,21,01,41,16.90
2015,08,21,01,42,16.90
2015,08,21,01,43,16.80
2015,08,21,01,44,16.80
2015,08,21,01,45,16.80
2015,08,21,01,46,16.80
2015,08,21,01,47,16.80
2015,08,21,01,48,16.80
2015,08,21,01,49,16.80
2015,08,21,01,50,16.80
2015,08,21,01,51,16.80
2015,08,21,01,52,16.80
2015,08,21,01,53,16.70
2015,08,21,01,54,16.70
2015,08,21,01,55,16.70
2015,08,21,01,56,16.70
2015,08,21,01,57,16.70
2015,08,21,01,58,16.70
2015,08,21,01,59,16.70
2015,08,21,02,00,16.70
2015,08,21,02,01,16.70
2015,08,21,02,02,16.70
2015,08,21,02,03,16.70
2015,08,21,02,04,16.70
2015,08,21,02,05,16.70
2015,08,21,02,06,16.60
2015,08,21,02,07,16.60
2015,08,21,02,08,16.60
2015,08,21,02,09,16.60
2015,08,21,02,10,16.60
2015,08,21,02,11,16.60
2015,08,21,02,12,16.60
2015,08,21,02,13,16.60
2015,08,21,02,14,16.60
2015,08,21,02,15,16.50
2015,08,21,02,16,16.50
2015,08,21,02,17,16.50
2015,08,21,02,18,16.50
2015,08,21,02,19,16.50
2015,08,21,02,20,16.50
2015,08,21,02,21,16.50
2015,08,21,02,22,16.50
2015,08,21,02,23,16.50
2015,08,21,02,24,16.50
2015,08,21,02,25,16.50
2015,08,21,02,26,16.50
2015,08,21,02,27,16.50
2015,08,21,02,28,16.50
2015,08,21,02,29,16.50
2015,08,21,02,30,16.40
2015,08,21,02,31,16.40
2015,08,21,02,32,16.40
2015,08,21,02,33,16.40
2015,08,21,02,34,16.40
2015,08,21,02,35,16.40
2015,08,21,02,36,16.40
2015,08,21,02,37,16.40
2015,08,21,02,38,16.40
2015,08,21,02,39,16.40
2015,08,21,02,40,16.50
2015,08,21,02,41,16.50
2015,08,21,02,42,16.40
2015,08,21,02,43,16.40
2015,08,21,02,44,16.40
2015,08,21,02,45,16.40
2015,08,21,02,46,16.40
2015,08,21,02,47,16.40
2015,08,21,02,48,16.50
2015,08,21,02,49,16.50
2015,08,21,02,50,16.50
2015,08,21,02,51,16.60
2015,08,21,02,52,16.60
2015,08,21,02,53,16.60
2015,08,21,02,54,16.60
2015,08,21,02,55,16.50
2015,08,21,02,56,16.50
2015,08,21,02,57,16.50
2015,08,21,02,58,16.50
2015,08,21,02,59,16.50
2015,08,21,03,00,16.50
2015,08,21,03,01,16.40
2015,08,21,03,02,16.40
2015,08,21,03,03,16.40
2015,08,21,03,06,16.30
2015,08,21,03,07,16.30
2015,08,21,03,08,16.40
2015,08,21,03,09,16.40
2015,08,21,03,10,16.40
2015,08,21,03,11,16.40
2015,08,21,03,12,16.40
2015,08,21,03,13,16.40
2015,08,21,03,14,16.40
2015,08,21,03,15,16.40
2015,08,21,03,16,16.40
2015,08,21,03,17,16.40
2015,08,21,03,18,16.40
2015,08,21,03,19,16.30
2015,08,21,03,20,16.30
2015,08,21,03,21,16.30
2015,08,21,03,22,16.30
2015,08,21,03,23,16.30
2015,08,21,03,24,16.30
2015,08,21,03,25,16.30
2015,08,21,03,26,16.30
2015,08,21,03,27,16.30
2015,08,21,03,28,16.30
2015,08,21,03,29,16.30
2015,08,21,03,30,16.30
2015,08,21,03,31,16.30
2015,08,21,03,32,16.30
2015,08,21,03,33,16.30
2015,08,21,03,34,16.30
2015,08,21,03,35,16.30
2015,08,21,03,36,16.30
2015,08,21,03,37,16.30
2015,08,21,03,38,16.30
2015,08,21,03,39,16.30
2015,08,21,03,40,16.20
2015,08,21,03,41,16.20
2015,08,21,03,42,16.20
2015,08,21,03,43,16.20
2015,08,21,03,44,16.20
2015,08,21,03,45,16.20
2015,08,21,03,46,16.20
2015,08,21,03,47,16.20
2015,08,21,03,48,16.20
2015,08,21,03,49,16.20
2015,08,21,03,50,16.20
2015,08,21,03,51,16.20
2015,08,21,03,52,16.10
2015,08,21,03,53,16.10
2015,08,21,03,54,16.10
2015,08,21,03,55,16.10
2015,08,21,03,56,16.10
2015,08,21,03,57,16.10
2015,08,21,03,58,16.10
2015,08,21,03,59,16.00
2015,08,21,04,00,16.00
2015,08,21,04,01,16.00
2015,08,21,04,02,15.90
2015,08,21,04,03,15.90
2015,08,21,04,04,15.90
2015,08,21,04,05,15.90
2015,08,21,04,06,15.80
2015,08,21,04,07,15.80
2015,08,21,04,08,15.80
2015,08,21,04,09,15.80
2015,08,21,04,10,15.80
2015,08,21,04,11,15.80
2015,08,21,04,12,15.70
2015,08,21,04,13,15.70
2015,08,21,04,14,15.70
2015,08,21,04,15,15.70
2015,08,21,04,16,15.70
2015,08,21,04,17,15.70
2015,08,21,04,18,15.70
2015,08,21,04,19,15.70
2015,08,21,04,20,15.70
2015,08,21,04,21,15.70
2015,08,21,04,22,15.70
2015,08,21,04,23,15.70
2015,08,21,04,24,15.60
2015,08,21,04,25,15.60
2015,08,21,04,26,15.60
2015,08,21,04,27,15.60
2015,08,21,04,28,15.60
2015,08,21,04,29,15.60
2015,08,21,04,30,15.60
2015,08,21,04,31,15.50
2015,08,21,04,32,15.50
2015,08,21,04,33,15.50
2015,08,21,04,34,15.50
2015,08,21,04,35,15.50
2015,08,21,04,36,15.40
2015,08,21,04,37,15.40
2015,08,21,04,38,15.40
2015,08,21,04,39,15.40
2015,08,21,04,40,15.50
2015,08,21,04,41,15.50
2015,08,21,04,42,15.50
2015,08,21,04,43,15.40
2015,08,21,04,44,15.50
2015,08,21,04,45,15.50
2015,08,21,04,46,15.40
2015,08,21,04,47,15.40
2015,08,21,04,48,15.40
2015,08,21,04,49,15.40
2015,08,21,04,50,15.40
2015,08,21,04,51,15.40
2015,08,21,04,52,15.40
2015,08,21,04,53,15.40
2015,08,21,04,54,15.40
2015,08,21,04,55,15.30
2015,08,21,04,56,15.30
2015,08,21,04,57,15.30
2015,08,21,04,58,15.30
2015,08,21,04,59,15.20
2015,08,21,05,00,15.20
2015,08,21,05,01,15.10
2015,08,21,05,02,15.00
2015,08,21,05,03,15.00
2015,08,21,05,04,15.00
2015,08,21,05,05,15.00
2015,08,21,05,06,15.00
2015,08,21,05,07,15.00
2015,08,21,05,08,15.00
2015,08,21,05,09,15.00
2015,08,21,05,10,15.00
2015,08,21,05,11,15.00
2015,08,21,05,12,15.00
2015,08,21,05,13,15.00
2015,08,21,05,14,15.00
2015,08,21,05,15,15.00
2015,08,21,05,16,15.00
2015,08,21,05,17,15.00
2015,08,21,05,18,15.00
2015,08,21,05,19,15.00
2015,08,21,05,20,15.00
2015,08,21,05,21,15.00
2015,08,21,05,22,15.00
2015,08,21,05,23,15.00
2015,08,21,05,24,15.00
2015,08,21,05,25,15.00
2015,08,21,05,26,15.00
2015,08,21,05,27,15.00
2015,08,21,05,28,15.00
2015,08,21,05,29,15.00
2015,08,21,05,30,15.00
2015,08,21,05,31,15.00
2015,08,21,05,32,15.00
2015,08,21,05,33,15.00
2015,08,21,05,34,15.00
2015,08,21,05,35,15.00
2015,08,21,05,36,15.00
2015,08,21,05,37,15.00
2015,08,21,05,38,15.00
2015,08,21,05,39,15.00
2015,08,21,05,40,15.00
2015,08,21,05,41,15.00
2015,08,21,05,42,15.00
2015,08,21,05,43,15.00
2015,08,21,05,44,15.00
2015,08,21,05,45,15.00
2015,08,21,05,46,14.90
2015,08,21,05,47,14.90
2015,08,21,05,48,14.90
2015,08,21,05,49,14.90
2015,08,21,05,50,14.90
2015,08,21,05,51,14.90
2015,08,21,05,52,14.90
2015,08,21,05,53,14.90
2015,08,21,05,54,14.90
2015,08,21,05,55,15.00
2015,08,21,05,56,15.00
2015,08,21,05,57,15.00
2015,08,21,05,58,15.00
2015,08,21,05,59,14.90
2015,08,21,06,00,15.00
2015,08,21,06,01,15.00
2015,08,21,06,02,15.00
2015,08,21,06,03,15.00
2015,08,21,06,04,15.00
2015,08,21,06,05,15.00
2015,08,21,06,06,14.90
2015,08,21,06,07,14.90
2015,08,21,06,08,14.90
2015,08,21,06,09,14.80
2015,08,21,06,10,14.80
2015,08,21,06,11,14.80
2015,08,21,06,12,14.80
2015,08,21,06,13,14.80
2015,08,21,06,14,14.80
2015,08,21,06,15,14.80
2015,08,21,06,16,14.80
2015,08,21,06,17,14.80
2015,08,21,06,18,14.80
2015,08,21,06,19,14.70
2015,08,21,06,20,14.80
2015,08,21,06,21,14.80
2015,08,21,06,22,14.80
2015,08,21,06,23,14.80
2015,08,21,06,24,14.80
2015,08,21,06,25,14.80
2015,08,21,06,26,14.80
2015,08,21,06,27,14.80
2015,08,21,06,28,14.80
2015,08,21,06,29,14.80
2015,08,21,06,30,14.80
2015,08,21,06,31,14.80
2015,08,21,06,32,14.90
2015,08,21,06,33,14.90
2015,08,21,06,34,14.90
2015,08,21,06,35,14.90
2015,08,21,06,36,14.90
2015,08,21,06,37,14.90
2015,08,21,06,38,14.90
2015,08,21,06,39,14.90
2015,08,21,06,40,14.90
2015,08,21,06,41,14.90
2015,08,21,06,42,14.90
2015,08,21,06,43,14.90
2015,08,21,06,44,14.90
2015,08,21,06,45,14.90
2015,08,21,06,46,15.00
2015,08,21,06,47,15.00
2015,08,21,06,48,15.00
2015,08,21,06,49,15.00
2015,08,21,06,50,15.00
2015,08,21,06,51,15.00
2015,08,21,06,52,15.00
2015,08,21,06,53,15.00
2015,08,21,06,54,15.00
2015,08,21,06,55,15.00
2015,08,21,06,56,15.00
2015,08,21,06,57,15.00
2015,08,21,06,58,15.00
2015,08,21,06,59,15.00
2015,08,21,07,00,15.00
2015,08,21,07,01,15.00
2015,08,21,07,02,15.00
2015,08,21,07,03,15.00
2015,08,21,07,04,15.00
2015,08,21,07,05,15.00
2015,08,21,07,06,15.10
2015,08,21,07,07,15.10
2015,08,21,07,08,15.20
2015,08,21,07,09,15.20
2015,08,21,07,10,15.20
2015,08,21,07,11,15.20
2015,08,21,07,12,15.20
2015,08,21,07,13,15.20
2015,08,21,07,14,15.20
2015,08,21,07,15,15.30
2015,08,21,07,16,15.30
2015,08,21,07,17,15.30
2015,08,21,07,18,15.30
2015,08,21,07,19,15.30
2015,08,21,07,20,15.30
2015,08,21,07,21,15.30
2015,08,21,07,22,15.30
2015,08,21,07,23,15.30
2015,08,21,07,24,15.30
2015,08,21,07,25,15.30
2015,08,21,07,26,15.30
2015,08,21,07,27,15.30
2015,08,21,07,28,15.30
2015,08,21,07,29,15.40
2015,08,21,07,30,15.30
2015,08,21,07,31,15.30
2015,08,21,07,32,15.30
2015,08,21,07,33,15.30
2015,08,21,07,34,15.30
2015,08,21,07,35,15.30
2015,08,21,07,36,15.30
2015,08,21,07,37,15.30
2015,08,21,07,38,15.30
2015,08,21,07,39,15.30
2015,08,21,07,40,15.40
2015,08,21,07,41,15.40
2015,08,21,07,42,15.40
2015,08,21,07,43,15.40
2015,08,21,07,44,15.40
2015,08,21,07,45,15.40
2015,08,21,07,46,15.40
2015,08,21,07,47,15.50
2015,08,21,07,48,15.50
2015,08,21,07,49,15.50
2015,08,21,07,50,15.60
2015,08,21,07,51,15.60
2015,08,21,07,52,15.60
2015,08,21,07,53,15.60
2015,08,21,07,54,15.70
2015,08,21,07,55,15.70
2015,08,21,07,56,15.70
2015,08,21,07,57,15.70
2015,08,21,07,58,15.70
2015,08,21,07,59,15.70
2015,08,21,08,00,15.70
2015,08,21,08,01,15.70
2015,08,21,08,02,15.70
2015,08,21,08,03,15.80
2015,08,21,08,04,15.80
2015,08,21,08,05,15.80
2015,08,21,08,06,15.80
2015,08,21,08,07,15.80
2015,08,21,08,08,15.80
2015,08,21,08,09,15.80
2015,08,21,08,10,15.80
2015,08,21,08,11,15.80
2015,08,21,08,12,15.80
2015,08,21,08,13,15.80
2015,08,21,08,14,15.90
2015,08,21,08,15,15.90
2015,08,21,08,16,15.90
2015,08,21,08,17,15.90
2015,08,21,08,18,15.90
2015,08,21,08,19,15.90
2015,08,21,08,20,15.90
2015,08,21,08,21,15.90
2015,08,21,08,22,15.90
2015,08,21,08,23,15.90
2015,08,21,08,24,15.90
2015,08,21,08,25,15.90
2015,08,21,08,26,15.90
2015,08,21,08,27,16.00
2015,08,21,08,28,16.00
2015,08,21,08,29,16.10
2015,08,21,08,30,16.10
2015,08,21,08,31,16.10
2015,08,21,08,32,16.10
2015,08,21,08,33,16.10
2015,08,21,08,34,16.10
2015,08,21,08,35,16.20
2015,08,21,08,36,16.20
2015,08,21,08,37,16.30
2015,08,21,08,38,16.30
2015,08,21,08,39,16.30
2015,08,21,08,40,16.30
2015,08,21,08,41,16.30
2015,08,21,08,42,16.30
2015,08,21,08,43,16.40
2015,08,21,08,44,16.40
2015,08,21,08,45,16.40
2015,08,21,08,46,16.30
2015,08,21,08,47,16.30
2015,08,21,08,48,16.30
2015,08,21,08,49,16.30
2015,08,21,08,50,16.30
2015,08,21,08,51,16.30
2015,08,21,08,52,16.30
2015,08,21,08,53,16.40
2015,08,21,08,54,16.40
2015,08,21,08,55,16.40
2015,08,21,08,56,16.40
2015,08,21,08,57,16.50
2015,08,21,08,58,16.50
2015,08,21,08,59,16.50
2015,08,21,09,00,16.50
2015,08,21,09,01,16.50
2015,08,21,09,02,16.60
2015,08,21,09,03,16.60
2015,08,21,09,04,16.60
2015,08,21,09,05,16.60
2015,08,21,09,06,16.70
2015,08,21,09,07,16.60
2015,08,21,09,08,16.60
2015,08,21,09,09,16.60
2015,08,21,09,10,16.70
2015,08,21,09,11,16.60
2015,08,21,09,12,16.60
2015,08,21,09,13,16.60
2015,08,21,09,14,16.50
2015,08,21,09,15,16.50
2015,08,21,09,16,16.60
2015,08,21,09,17,16.60
2015,08,21,09,18,16.60
2015,08,21,09,19,16.60
2015,08,21,09,20,16.60
2015,08,21,09,21,16.60
2015,08,21,09,22,16.70
2015,08,21,09,23,16.80
2015,08,21,09,24,16.80
2015,08,21,09,25,16.80
2015,08,21,09,26,16.80
2015,08,21,09,27,16.80
2015,08,21,09,28,16.90
2015,08,21,09,29,16.90
2015,08,21,09,30,16.90
2015,08,21,09,31,16.90
2015,08,21,09,32,17.00
2015,08,21,09,33,17.00
2015,08,21,09,34,17.00
2015,08,21,09,35,17.00
2015,08,21,09,36,16.90
2015,08,21,09,37,16.90
2015,08,21,09,38,17.00
2015,08,21,09,39,17.00
2015,08,21,09,40,17.10
2015,08,21,09,41,17.00
2015,08,21,09,42,17.10
2015,08,21,09,43,17.10
2015,08,21,09,44,17.10
2015,08,21,09,45,17.10
2015,08,21,09,46,17.10
2015,08,21,09,47,17.20
2015,08,21,09,48,17.20
2015,08,21,09,49,17.30
2015,08,21,09,50,17.20
2015,08,21,09,51,17.20
2015,08,21,09,52,17.20
2015,08,21,09,53,17.30
2015,08,21,09,54,17.30
2015,08,21,09,55,17.30
2015,08,21,09,56,17.20
2015,08,21,09,57,17.20
2015,08,21,09,58,17.20
2015,08,21,09,59,17.20
2015,08,21,10,00,17.20
2015,08,21,10,01,17.20
2015,08,21,10,02,17.20
2015,08,21,10,03,17.20
2015,08,21,10,04,17.30
2015,08,21,10,05,17.40
2015,08,21,10,06,17.40
2015,08,21,10,07,17.40
2015,08,21,10,08,17.30
2015,08,21,10,09,17.30
2015,08,21,10,10,17.30
2015,08,21,10,11,17.30
2015,08,21,10,12,17.30
2015,08,21,10,13,17.30
2015,08,21,10,14,17.20
2015,08,21,10,15,17.20
2015,08,21,10,16,17.20
2015,08,21,10,17,17.30
2015,08,21,10,18,17.30
2015,08,21,10,19,17.30
2015,08,21,10,20,17.40
2015,08,21,10,21,17.40
2015,08,21,10,22,17.40
2015,08,21,10,23,17.40
2015,08,21,10,24,17.40
2015,08,21,10,25,17.40
2015,08,21,10,26,17.40
2015,08,21,10,27,17.40
2015,08,21,10,28,17.40
2015,08,21,10,29,17.40
2015,08,21,10,30,17.40
2015,08,21,10,31,17.40
2015,08,21,10,32,17.40
2015,08,21,10,33,17.40
2015,08,21,10,34,17.40
2015,08,21,10,35,17.50
2015,08,21,10,36,17.60
2015,08,21,10,37,17.50
2015,08,21,10,38,17.50
2015,08,21,10,39,17.50
2015,08,21,10,40,17.60
2015,08,21,10,41,17.60
2015,08,21,10,42,17.70
2015,08,21,10,43,17.70
2015,08,21,10,44,17.80
2015,08,21,10,45,17.80
2015,08,21,10,46,17.70
2015,08,21,10,47,17.60
2015,08,21,10,48,17.60
2015,08,21,10,49,17.60
2015,08,21,10,50,17.70
2015,08,21,10,51,17.80
2015,08,21,10,52,17.80
2015,08,21,10,53,17.80
2015,08,21,10,54,17.80
2015,08,21,10,55,17.80
2015,08,21,10,56,17.80
2015,08,21,10,57,17.80
2015,08,21,10,58,17.70
2015,08,21,10,59,17.70
2015,08,21,11,00,17.70
2015,08,21,11,01,17.70
2015,08,21,11,02,17.70
2015,08,21,11,03,17.70
2015,08,21,11,04,17.70
2015,08,21,11,05,17.70
2015,08,21,11,06,17.70
2015,08,21,11,07,17.70
2015,08,21,11,08,17.70
2015,08,21,11,09,17.70
2015,08,21,11,10,17.80
2015,08,21,11,11,17.80
2015,08,21,11,12,17.70
2015,08,21,11,13,17.70
2015,08,21,11,14,17.60
2015,08,21,11,15,17.60
2015,08,21,11,16,17.70
2015,08,21,11,17,17.70
2015,08,21,11,18,17.80
2015,08,21,11,19,17.80
2015,08,21,11,20,17.90
2015,08,21,11,21,17.90
2015,08,21,11,22,18.00
2015,08,21,11,23,18.00
2015,08,21,11,24,18.00
2015,08,21,11,25,18.00
2015,08,21,11,26,18.10
2015,08,21,11,27,18.10
2015,08,21,11,28,18.00
2015,08,21,11,29,18.00
2015,08,21,11,30,18.00
2015,08,21,11,31,18.10
2015,08,21,11,32,18.10
2015,08,21,11,33,18.10
2015,08,21,11,34,18.10
2015,08,21,11,35,18.00
2015,08,21,11,36,18.00
2015,08,21,11,37,17.90
2015,08,21,11,38,17.90
2015,08,21,11,39,18.00
2015,08,21,11,40,18.00
2015,08,21,11,41,18.00
2015,08,21,11,42,18.00
2015,08,21,11,43,18.10
2015,08,21,11,44,18.10
2015,08,21,11,45,18.20
2015,08,21,11,46,18.30
2015,08,21,11,47,18.30
2015,08,21,11,48,18.20
2015,08,21,11,49,18.20
2015,08,21,11,50,18.10
2015,08,21,11,51,18.10
2015,08,21,11,52,18.10
2015,08,21,11,53,18.10
2015,08,21,11,54,18.00
2015,08,21,11,55,18.00
2015,08,21,11,56,18.00
2015,08,21,11,57,18.00
2015,08,21,11,58,18.20
2015,08,21,11,59,18.30
2015,08,21,12,00,18.40
2015,08,21,12,01,18.50
2015,08,21,12,02,18.50
2015,08,21,12,03,18.60
2015,08,21,12,04,18.60
2015,08,21,12,05,18.70
2015,08,21,12,06,18.70
2015,08,21,12,07,18.60
2015,08,21,12,08,18.60
2015,08,21,12,09,18.60
2015,08,21,12,10,18.70
2015,08,21,12,11,18.70
2015,08,21,12,12,18.70
2015,08,21,12,13,18.70
2015,08,21,12,14,18.70
2015,08,21,12,15,18.80
2015,08,21,12,16,18.80
2015,08,21,12,17,18.80
2015,08,21,12,18,18.80
2015,08,21,12,19,18.80
2015,08,21,12,20,18.70
2015,08,21,12,21,18.70
2015,08,21,12,22,18.80
2015,08,21,12,23,18.80
2015,08,21,12,24,18.80
2015,08,21,12,25,18.80
2015,08,21,12,26,18.70
2015,08,21,12,27,18.70
2015,08,21,12,28,18.70
2015,08,21,12,29,18.70
2015,08,21,12,30,18.70
2015,08,21,12,31,18.70
2015,08,21,12,32,18.80
2015,08,21,12,33,18.80
2015,08,21,12,34,18.80
2015,08,21,12,35,18.70
2015,08,21,12,36,18.70
2015,08,21,12,37,18.70
2015,08,21,12,38,18.80
2015,08,21,12,39,18.80
2015,08,21,12,40,18.70
2015,08,21,12,41,18.80
2015,08,21,12,42,18.80
2015,08,21,12,43,18.80
2015,08,21,12,44,18.80
2015,08,21,12,45,18.80
2015,08,21,12,46,18.80
2015,08,21,12,47,18.70
2015,08,21,12,48,18.70
2015,08,21,12,49,18.70
2015,08,21,12,50,18.70
2015,08,21,12,51,18.70
2015,08,21,12,52,18.80
2015,08,21,12,53,18.80
2015,08,21,12,54,18.80
2015,08,21,12,55,18.80
2015,08,21,12,56,18.80
2015,08,21,12,57,18.80
2015,08,21,12,58,18.80
2015,08,21,12,59,18.90
2015,08,21,13,00,18.90
2015,08,21,13,01,18.90
2015,08,21,13,02,18.80
2015,08,21,13,03,18.90
2015,08,21,13,04,18.90
2015,08,21,13,05,18.90
2015,08,21,13,06,18.90
2015,08,21,13,07,18.80
2015,08,21,13,08,18.80
2015,08,21,13,09,18.80
2015,08,21,13,10,18.70
2015,08,21,13,11,18.70
2015,08,21,13,12,18.80
2015,08,21,13,13,18.80
2015,08,21,13,14,18.70
2015,08,21,13,15,18.70
2015,08,21,13,16,18.60
2015,08,21,13,17,18.60
2015,08,21,13,18,18.60
2015,08,21,13,19,18.70
2015,08,21,13,20,18.70
2015,08,21,13,21,18.70
2015,08,21,13,22,18.80
2015,08,21,13,23,18.90
2015,08,21,13,24,18.90
2015,08,21,13,25,19.00
2015,08,21,13,26,19.00
2015,08,21,13,27,19.10
2015,08,21,13,28,19.10
2015,08,21,13,29,19.00
2015,08,21,13,30,19.00
2015,08,21,13,31,19.10
2015,08,21,13,32,19.10
2015,08,21,13,33,19.10
2015,08,21,13,34,19.10
2015,08,21,13,35,19.10
2015,08,21,13,36,19.10
2015,08,21,13,37,19.10
2015,08,21,13,38,19.10
2015,08,21,13,39,19.10
2015,08,21,13,40,19.10
2015,08,21,13,41,19.10
2015,08,21,13,42,19.10
2015,08,21,13,43,19.10
2015,08,21,13,44,19.20
2015,08,21,13,45,19.30
2015,08,21,13,46,19.40
2015,08,21,13,47,19.40
2015,08,21,13,48,19.40
2015,08,21,13,49,19.30
2015,08,21,13,50,19.30
2015,08,21,13,51,19.30
2015,08,21,13,52,19.30
2015,08,21,13,53,19.20
2015,08,21,13,54,19.20
2015,08,21,13,55,19.30
2015,08,21,13,56,19.30
2015,08,21,13,57,19.30
2015,08,21,13,58,19.40
2015,08,21,13,59,19.50
2015,08,21,14,00,19.60
2015,08,21,14,01,19.70
2015,08,21,14,02,19.80
2015,08,21,14,03,19.90
2015,08,21,14,04,19.90
2015,08,21,14,05,19.90
2015,08,21,14,06,19.90
2015,08,21,14,07,19.90
2015,08,21,14,08,19.90
2015,08,21,14,09,20.00
2015,08,21,14,10,20.00
2015,08,21,14,11,20.10
2015,08,21,14,12,20.20
2015,08,21,14,13,20.10
2015,08,21,14,14,20.10
2015,08,21,14,15,20.00
2015,08,21,14,16,20.00
2015,08,21,14,17,20.10
2015,08,21,14,18,20.10
2015,08,21,14,19,20.10
2015,08,21,14,20,20.20
2015,08,21,14,21,20.20
2015,08,21,14,22,20.30
2015,08,21,14,23,20.30
2015,08,21,14,24,20.20
2015,08,21,14,25,20.10
2015,08,21,14,26,20.10
2015,08,21,14,27,20.00
2015,08,21,14,28,20.10
2015,08,21,14,29,20.10
2015,08,21,14,30,20.10
2015,08,21,14,31,20.10
2015,08,21,14,32,20.10
2015,08,21,14,33,20.10
2015,08,21,14,34,20.10
2015,08,21,14,35,20.00
2015,08,21,14,36,20.00
2015,08,21,14,37,20.10
2015,08,21,14,38,20.20
2015,08,21,14,39,20.20
2015,08,21,14,40,20.30
2015,08,21,14,41,20.40
2015,08,21,14,42,20.40
2015,08,21,14,43,20.40
2015,08,21,14,44,20.40
2015,08,21,14,45,20.40
2015,08,21,14,46,20.50
2015,08,21,14,47,20.40
2015,08,21,14,48,20.40
2015,08,21,14,49,20.40
2015,08,21,14,50,20.40
2015,08,21,14,51,20.50
2015,08,21,14,52,20.60
2015,08,21,14,53,20.70
2015,08,21,14,54,20.80
2015,08,21,14,55,20.90
2015,08,21,14,56,21.00
2015,08,21,14,57,21.00
2015,08,21,14,58,21.00
2015,08,21,14,59,20.90
2015,08,21,15,00,20.80
2015,08,21,15,01,20.80
2015,08,21,15,02,20.80
2015,08,21,15,03,20.80
2015,08,21,15,04,20.80
2015,08,21,15,05,20.80
2015,08,21,15,06,20.80
2015,08,21,15,07,20.80
2015,08,21,15,08,20.80
2015,08,21,15,09,20.90
2015,08,21,15,10,20.90
2015,08,21,15,11,20.90
2015,08,21,15,12,21.00
2015,08,21,15,13,21.00
2015,08,21,15,14,21.00
2015,08,21,15,15,21.00
2015,08,21,15,16,20.90
2015,08,21,15,17,21.00
2015,08,21,15,18,21.00
2015,08,21,15,19,21.10
2015,08,21,15,20,21.10
2015,08,21,15,21,21.10
2015,08,21,15,22,21.20
2015,08,21,15,23,21.20
2015,08,21,15,24,21.40
2015,08,21,15,25,21.50
2015,08,21,15,26,21.60
2015,08,21,15,27,21.60
2015,08,21,15,28,21.70
2015,08,21,15,29,21.80
2015,08,21,15,30,21.80
2015,08,21,15,31,21.80
2015,08,21,15,32,21.80
2015,08,21,15,33,21.90
2015,08,21,15,34,21.90
2015,08,21,15,35,21.80
2015,08,21,15,36,21.80
2015,08,21,15,37,21.80
2015,08,21,15,38,21.80
2015,08,21,15,39,21.80
2015,08,21,15,40,21.80
2015,08,21,15,41,21.80
2015,08,21,15,42,21.90
2015,08,21,15,43,22.00
2015,08,21,15,44,22.10
2015,08,21,15,45,22.00
2015,08,21,15,46,22.00
2015,08,21,15,47,21.90
2015,08,21,15,48,21.80
2015,08,21,15,49,21.80
2015,08,21,15,50,21.80
2015,08,21,15,51,21.80
2015,08,21,15,52,21.80
2015,08,21,15,53,21.80
2015,08,21,15,54,21.80
2015,08,21,15,55,21.80
2015,08,21,15,56,21.80
2015,08,21,15,57,21.90
2015,08,21,15,58,21.90
2015,08,21,15,59,21.80
2015,08,21,16,00,21.90
2015,08,21,16,01,21.80
2015,08,21,16,02,21.80
2015,08,21,16,03,21.80
2015,08,21,16,04,21.80
2015,08,21,16,05,21.80
2015,08,21,16,06,21.80
2015,08,21,16,07,21.80
2015,08,21,16,08,21.80
2015,08,21,16,09,21.80
2015,08,21,16,10,21.80
2015,08,21,16,11,21.60
2015,08,21,16,12,21.40
2015,08,21,16,13,21.00
2015,08,21,16,14,20.70
2015,08,21,16,15,20.50
2015,08,21,16,16,20.40
2015,08,21,16,17,20.30
2015,08,21,16,18,20.20
2015,08,21,16,19,20.20
2015,08,21,16,20,20.20
2015,08,21,16,21,20.20
2015,08,21,16,22,20.10
2015,08,21,16,23,20.00
2015,08,21,16,24,19.90
2015,08,21,16,25,19.80
2015,08,21,16,26,19.60
2015,08,21,16,27,19.50
2015,08,21,16,28,19.40
2015,08,21,16,29,19.40
2015,08,21,16,30,19.40
2015,08,21,16,31,19.40
2015,08,21,16,32,19.50
2015,08,21,16,33,19.60
2015,08,21,16,34,19.70
2015,08,21,16,35,19.70
2015,08,21,16,36,19.60
2015,08,21,16,37,19.60
2015,08,21,16,38,19.60
2015,08,21,16,39,19.70
2015,08,21,16,40,19.70
2015,08,21,16,41,19.80
2015,08,21,16,42,19.80
2015,08,21,16,43,19.80
2015,08,21,16,44,19.80
2015,08,21,16,45,19.70
2015,08,21,16,46,19.70
2015,08,21,16,47,19.70
2015,08,21,16,48,19.80
2015,08,21,16,49,19.80
2015,08,21,16,50,19.80
2015,08,21,16,51,19.80
2015,08,21,16,52,19.90
2015,08,21,16,53,19.90
2015,08,21,16,54,19.90
2015,08,21,16,55,20.00
2015,08,21,16,56,20.10
2015,08,21,16,57,20.20
2015,08,21,16,58,20.20
2015,08,21,16,59,20.20
2015,08,21,17,00,20.30
2015,08,21,17,01,20.30
2015,08,21,17,02,20.30
2015,08,21,17,03,20.40
2015,08,21,17,04,20.40
2015,08,21,17,05,20.50
2015,08,21,17,06,20.60
2015,08,21,17,07,20.60
2015,08,21,17,08,20.60
2015,08,21,17,09,20.70
2015,08,21,17,10,20.70
2015,08,21,17,11,20.80
2015,08,21,17,12,20.80
2015,08,21,17,13,20.80
2015,08,21,17,14,20.80
2015,08,21,17,15,20.80
2015,08,21,17,16,20.80
2015,08,21,17,17,20.70
2015,08,21,17,18,20.70
2015,08,21,17,19,20.70
2015,08,21,17,20,20.70
2015,08,21,17,21,20.70